QPF
0.00 0.00 0.00 0.00 0.00 0.00 0.00 0.00 0.00 0.00 0.00 0.00 0.00 0.00 0.00 0.00 0.00 0.00 0.00 0.00 0.00 0.00 0.00 0.00 0.00 0.00 0.00 0.00 0.00 0.00 0.00 0.00 0.00 0.00 0.00 0.00 0.00 0.00 0.00 0.00 0.00 0.00 0.00 0.00 0.00
0.00 0.00 0.00 0.00 0.00 0.00 0.00 0.00 0.00 0.00 0.00 0.00 0.00 0.00 0.00 0.00 0.00 0.00 0.00 0.00 0.00 0.00 0.00 0.00 0.00 0.00 0.00 0.00 0.00 0.00 0.00 0.00 0.00 0.00 0.00 0.01 0.02 0.00 0.00 0.00 0.00 0.00 0.00 0.00 0.00
0.00 0.00 0.00 0.00 0.00 0.00 0.00 0.00 0.00 0.00 0.00 0.00 0.00 0.00 0.00 0.00 0.00 0.00 0.00 0.00 0.00 0.00 0.00 0.00 0.00 0.00 0.00 0.00 0.00 0.00 0.00 0.00 0.00 0.00 0.00 0.01 0.00 0.00 0.00 0.00 0.00 0.00 0.00 0.00 0.00
0.00 0.00 0.00 0.00 0.00 0.00 0.00 0.00 0.00 0.00 0.00 0.00 0.00 0.00 0.00 0.00 0.00 0.00 0.00 0.00 0.00 0.00 0.00 0.00 0.00 0.00 0.00 0.00 0.00 0.00 0.00 0.00 0.00 0.01 0.00 0.00 0.00 0.00 0.00 0.00 0.00 0.00 0.00 0.00 0.00
0.00 0.00 0.00 0.00 0.00 0.00 0.00 0.00 0.00 0.00 0.00 0.00 0.00 0.00 0.00 0.00 0.00 0.00 0.00 0.00 0.00 0.00 0.00 0.00 0.00 0.00 0.00 0.00 0.00 0.00 0.00 0.00 0.00 0.01 0.00 0.00 0.00 0.00 0.00 0.00 0.00 0.00 0.00 0.00 0.00
0.00 0.00 0.00 0.00 0.00 0.00 0.00 0.00 0.00 0.00 0.00 0.00 0.00 0.00 0.00 0.00 0.00 0.00 0.00 0.00 0.00 0.00 0.00 0.00 0.00 0.00 0.00 0.00 0.00 0.00 0.00 0.00 0.00 0.00 0.00 0.00 0.00 0.00 0.00 0.00 0.00 0.00 0.00 0.00 0.00
0.00 0.00 0.00 0.00 0.00 0.00 0.00 0.00 0.00 0.00 0.00 0.00 0.00 0.00 0.00 0.00 0.00 0.00 0.00 0.00 0.00 0.00 0.00 0.00 0.00 0.00 0.00 0.00 0.00 0.00 0.00 0.00 0.00 0.00 0.00 0.00 0.00 0.00 0.00 0.00 0.00 0.00 0.00 0.00 0.00
0.00 0.00 0.00 0.00 0.00 0.00 0.00 0.00 0.00 0.00 0.00 0.00 0.00 0.00 0.00 0.00 0.00 0.00 0.00 0.00 0.00 0.00 0.00 0.00 0.00 0.00 0.00 0.00 0.00 0.00 0.00 0.00 0.00 0.00 0.00 0.00 0.00 0.00 0.00 0.00 0.00 0.00 0.00 0.00 0.00
0.00 0.00 0.00 0.00 0.00 0.00 0.00 0.00 0.00 0.00 0.00 0.00 0.00 0.00 0.00 0.00 0.00 0.00 0.00 0.00 0.00 0.00 0.00 0.00 0.00 0.00 0.00 0.00 0.00 0.00 0.00 0.00 0.00 0.00 0.00 0.00 0.00 0.00 0.00 0.00 0.00 0.00 0.00 0.00 0.00
0.00 0.00 0.00 0.00 0.00 0.00 0.00 0.00 0.00 0.00 0.00 0.00 0.00 0.00 0.00 0.00 0.00 0.00 0.00 0.00 0.00 0.00 0.00 0.00 0.00 0.00 0.00 0.00 0.00 0.00 0.00 0.00 0.00 0.00 0.00 0.00 0.00 0.00 0.00 0.00 0.00 0.00 0.00 0.00 0.00
0.00 0.00 0.00 0.00 0.00 0.00 0.00 0.00 0.00 0.00 0.00 0.00 0.00 0.00 0.00 0.00 0.00 0.00 0.00 0.00 0.00 0.00 0.00 0.00 0.00 0.00 0.00 0.00 0.00 0.00 0.00 0.00 0.00 0.00 0.00 0.00 0.00 0.00 0.00 0.00 0.00 0.00 0.00 0.00 0.00
0.00 0.00 0.01 0.00 0.00 0.00 0.00 0.00 0.00 0.00 0.00 0.00 0.00 0.00 0.00 0.00 0.00 0.00 0.00 0.00 0.00 0.00 0.00 0.00 0.00 0.00 0.00 0.00 0.00 0.00 0.00 0.00 0.00 0.00 0.00 0.00 0.00 0.00 0.00 0.00 0.00 0.00 0.00 0.00 0.00
0.00 0.01 0.00 0.00 0.00 0.00 0.00 0.00 0.00 0.00 0.00 0.00 0.00 0.00 0.00 0.00 0.00 0.00 0.00 0.00 0.00 0.00 0.00 0.00 0.00 0.00 0.00 0.00 0.00 0.00 0.00 0.00 0.00 0.00 0.00 0.00 0.00 0.00 0.00 0.00 0.00 0.01 0.01 0.00 0.00
0.01 0.01 0.00 0.00 0.00 0.00 0.00 0.00 0.00 0.00 0.00 0.00 0.00 0.00 0.00 0.00 0.00 0.00 0.00 0.00 0.00 0.00 0.00 0.00 0.00 0.00 0.00 0.00 0.00 0.00 0.00 0.00 0.00 0.00 0.00 0.00 0.00 0.00 0.00 0.00 0.00 0.01 0.01 0.01 0.00
0.01 0.01 0.01 0.00 0.00 0.00 0.00 0.00 0.00 0.00 0.00 0.00 0.00 0.00 0.00 0.00 0.00 0.00 0.00 0.00 0.00 0.00 0.00 0.00 0.00 0.00 0.00 0.00 0.00 0.00 0.00 0.00 0.00 0.00 0.00 0.00 0.00 0.00 0.00 0.00 0.00 0.00 0.00 0.02 0.01
0.01 0.01 0.00 0.00 0.00 0.00 0.00 0.00 0.00 0.00 0.00 0.00 0.00 0.00 0.00 0.00 0.00 0.00 0.00 0.00 0.00 0.00 0.00 0.00 0.00 0.00 0.00 0.00 0.00 0.00 0.00 0.00 0.00 0.00 0.00 0.00 0.00 0.00 0.00 0.00 0.00 0.00 0.00 0.01 0.01
0.01 0.01 0.00 0.00 0.00 0.00 0.00 0.00 0.00 0.00 0.00 0.00 0.00 0.00 0.00 0.00 0.00 0.00 0.00 0.00 0.00 0.00 0.00 0.00 0.00 0.00 0.00 0.00 0.00 0.00 0.00 0.00 0.00 0.00 0.00 0.00 0.00 0.00 0.00 0.00 0.00 0.00 0.00 0.00 0.00
0.00 0.00 0.00 0.00 0.00 0.00 0.00 0.00 0.00 0.00 0.00 0.00 0.00 0.00 0.00 0.00 0.00 0.00 0.00 0.00 0.00 0.00 0.00 0.00 0.00 0.00 0.00 0.00 0.00 0.00 0.00 0.00 0.00 0.00 0.00 0.00 0.00 0.00 0.00 0.00 0.00 0.00 0.00 0.00 0.00
0.00 0.00 0.00 0.00 0.00 0.00 0.00 0.00 0.00 0.00 0.00 0.00 0.00 0.00 0.00 0.00 0.00 0.00 0.00 0.00 0.00 0.00 0.00 0.00 0.00 0.00 0.00 0.00 0.00 0.00 0.00 0.00 0.00 0.00 0.00 0.00 0.00 0.00 0.00 0.00 0.00 0.00 0.00 0.00 0.00
0.00 0.00 0.00 0.00 0.00 0.00 0.00 0.00 0.00 0.00 0.00 0.00 0.00 0.00 0.00 0.00 0.00 0.00 0.00 0.00 0.00 0.00 0.00 0.00 0.00 0.00 0.00 0.00 0.00 0.00 0.00 0.00 0.00 0.00 0.00 0.00 0.00 0.00 0.00 0.00 0.00 0.00 0.00 0.00 0.00
0.00 0.00 0.00 0.00 0.00 0.00 0.00 0.00 0.00 0.00 0.00 0.00 0.00 0.00 0.00 0.00 0.00 0.00 0.00 0.00 0.00 0.00 0.00 0.00 0.00 0.00 0.00 0.00 0.00 0.00 0.00 0.00 0.00 0.00 0.00 0.00 0.00 0.00 0.00 0.00 0.00 0.00 0.00 0.00 0.00
0.00 0.00 0.00 0.00 0.00 0.00 0.00 0.00 0.00 0.00 0.00 0.00 0.00 0.00 0.00 0.00 0.00 0.00 0.00 0.00 0.00 0.00 0.00 0.00 0.00 0.00 0.00 0.00 0.00 0.00 0.00 0.00 0.00 0.00 0.00 0.00 0.00 0.00 0.00 0.00 0.00 0.00 0.00 0.00 0.00
0.00 0.00 0.00 0.00 0.00 0.00 0.00 0.00 0.00 0.00 0.00 0.00 0.00 0.00 0.00 0.00 0.00 0.00 0.00 0.00 0.00 0.00 0.00 0.00 0.00 0.00 0.00 0.00 0.00 0.00 0.00 0.00 0.00 0.00 0.00 0.00 0.00 0.00 0.00 0.00 0.00 0.00 0.00 0.00 0.00
0.00 0.00 0.00 0.00 0.00 0.00 0.00 0.00 0.00 0.00 0.00 0.00 0.00 0.00 0.00 0.00 0.00 0.00 0.00 0.00 0.00 0.00 0.00 0.00 0.00 0.00 0.00 0.00 0.00 0.00 0.00 0.00 0.00 0.00 0.00 0.00 0.00 0.00 0.00 0.00 0.00 0.00 0.00 0.00 0.00
0.00 0.00 0.00 0.00 0.00 0.00 0.00 0.00 0.00 0.00 0.00 0.00 0.00 0.00 0.00 0.00 0.00 0.00 0.00 0.00 0.00 0.00 0.00 0.00 0.00 0.00 0.00 0.00 0.00 0.00 0.00 0.00 0.00 0.00 0.00 0.00 0.00 0.00 0.00 0.00 0.00 0.00 0.00 0.00 0.00
0.00 0.00 0.00 0.00 0.00 0.00 0.00 0.00 0.00 0.00 0.00 0.00 0.00 0.00 0.00 0.00 0.00 0.00 0.00 0.00 0.00 0.00 0.00 0.00 0.00 0.00 0.00 0.00 0.00 0.00 0.00 0.00 0.00 0.00 0.00 0.00 0.00 0.00 0.00 0.00 0.00 0.00 0.00 0.00 0.00
0.00 0.00 0.00 0.00 0.00 0.00 0.00 0.00 0.00 0.00 0.00 0.00 0.00 0.00 0.00 0.00 0.00 0.00 0.00 0.00 0.00 0.00 0.00 0.00 0.00 0.00 0.00 0.00 0.00 0.00 0.00 0.00 0.00 0.00 0.00 0.00 0.00 0.00 0.00 0.01 0.05 0.11 0.07 0.03 0.00
MSLP
1016.07 1015.71 1015.36 1014.95 1014.59 1014.18 1013.80 1013.41 1012.89 1012.21 1011.78 1011.14 1010.75 1010.72 1010.17 1009.39 1008.91 1009.04 1007.90 1006.04 1006.22 1006.57 1006.83 1007.25 1007.62 1008.17 1008.44 1008.64 1008.79 1009.06 1009.62 1010.16 1009.82 1009.24 1008.94 1008.33 1008.48 1008.75 1008.77 1009.49 1009.87 1010.40 1011.47 1012.50 1013.51
1016.09 1015.67 1015.39 1014.96 1014.52 1014.06 1013.68 1013.21 1012.61 1012.04 1011.57 1011.10 1010.38 1010.54 1010.19 1009.56 1008.83 1007.79 1005.32 1005.54 1005.92 1006.31 1006.93 1007.33 1007.85 1008.35 1008.73 1008.91 1009.10 1009.12 1009.40 1009.45 1008.97 1008.71 1008.58 1008.16 1008.51 1008.75 1009.25 1009.96 1010.54 1011.39 1012.14 1013.04 1013.72
1016.12 1015.71 1015.27 1014.83 1014.33 1013.85 1013.33 1012.89 1012.31 1011.77 1011.29 1010.76 1010.25 1010.40 1010.05 1009.73 1008.75 1005.67 1004.58 1005.38 1005.95 1006.32 1006.80 1007.35 1007.63 1008.05 1008.33 1008.80 1008.88 1008.96 1009.02 1008.80 1008.25 1008.05 1007.82 1007.96 1008.62 1008.61 1009.32 1010.24 1010.59 1011.42 1012.50 1013.37 1014.04
1015.99 1015.51 1015.02 1014.55 1014.07 1013.56 1013.07 1012.53 1012.05 1011.56 1011.05 1010.57 1010.22 1010.01 1009.84 1009.64 1007.67 1005.04 1004.96 1005.40 1006.00 1006.28 1006.86 1007.48 1007.75 1008.11 1008.36 1008.41 1008.58 1008.61 1008.56 1008.03 1006.45 1007.47 1007.78 1008.16 1008.60 1008.93 1009.09 1009.60 1010.23 1011.02 1012.14 1013.11 1014.05
1015.85 1015.36 1014.85 1014.27 1013.75 1013.22 1012.67 1012.19 1011.70 1011.26 1010.82 1010.31 1009.90 1009.86 1009.67 1008.68 1006.17 1005.12 1005.20 1005.82 1006.37 1006.62 1007.01 1007.60 1007.87 1008.07 1008.09 1008.03 1008.16 1008.17 1007.86 1007.53 1007.29 1007.72 1007.99 1008.41 1008.64 1009.06 1009.18 1009.31 1010.34 1011.46 1012.42 1013.04 1013.65
1015.62 1015.13 1014.57 1013.95 1013.38 1012.76 1012.19 1011.77 1011.34 1010.85 1010.42 1010.05 1009.73 1009.74 1009.35 1007.60 1005.14 1005.21 1005.53 1006.18 1006.37 1006.80 1007.13 1007.42 1007.51 1007.56 1007.60 1007.82 1007.86 1007.58 1007.65 1007.40 1007.54 1007.92 1008.13 1008.48 1008.84 1009.03 1008.96 1009.32 1010.49 1011.41 1012.18 1012.93 1013.36
1015.34 1014.76 1014.18 1013.57 1012.93 1012.39 1011.84 1011.40 1010.87 1010.26 1009.86 1009.76 1009.52 1009.53 1008.62 1006.19 1005.21 1005.39 1005.88 1006.20 1006.45 1006.62 1007.16 1007.46 1007.41 1007.55 1007.53 1007.39 1007.31 1007.43 1007.72 1007.71 1007.57 1008.12 1008.18 1008.44 1008.78 1008.51 1009.03 1009.46 1010.47 1011.33 1011.96 1012.63 1013.06
1014.98 1014.44 1013.80 1013.23 1012.60 1012.05 1011.54 1010.95 1010.25 1009.52 1009.06 1009.22 1009.39 1009.24 1007.60 1005.72 1005.54 1005.97 1006.23 1006.52 1006.69 1007.07 1007.32 1007.39 1007.39 1007.69 1007.45 1006.70 1007.11 1007.46 1007.91 1008.07 1006.99 1007.60 1007.89 1008.23 1008.60 1008.40 1008.79 1009.52 1010.47 1011.24 1011.86 1012.28 1012.88
1014.53 1014.01 1013.40 1012.79 1012.31 1011.69 1011.07 1010.36 1009.57 1009.04 1008.78 1009.04 1009.32 1008.85 1007.00 1006.02 1005.96 1005.71 1005.98 1006.23 1006.65 1007.16 1007.46 1007.33 1007.45 1007.56 1007.19 1007.27 1007.57 1007.78 1007.84 1007.70 1007.11 1006.91 1007.68 1008.32 1008.40 1008.45 1008.99 1009.60 1010.39 1011.00 1011.54 1011.93 1012.36
1014.26 1013.60 1013.02 1012.46 1011.91 1011.34 1010.56 1009.52 1009.24 1009.13 1009.16 1009.07 1008.70 1008.48 1006.56 1005.42 1004.93 1005.24 1005.84 1006.08 1006.45 1007.00 1007.69 1007.83 1007.53 1007.76 1007.95 1008.00 1008.23 1007.98 1007.58 1006.88 1006.94 1007.02 1007.46 1008.00 1008.04 1008.31 1008.85 1009.42 1010.07 1010.72 1011.20 1011.55 1011.81
1013.98 1013.40 1012.72 1012.14 1011.68 1011.20 1010.44 1009.45 1009.80 1009.41 1008.88 1008.07 1007.67 1006.97 1005.95 1004.93 1004.51 1004.82 1005.16 1006.07 1006.30 1006.52 1007.40 1007.31 1007.74 1007.84 1007.84 1007.73 1007.42 1007.44 1007.26 1006.78 1005.80 1006.00 1006.70 1007.45 1008.06 1008.10 1008.62 1009.24 1009.75 1010.30 1010.90 1011.10 1011.12
1013.74 1013.13 1012.52 1011.86 1011.35 1010.96 1010.89 1010.11 1009.86 1009.69 1008.88 1007.27 1006.85 1006.49 1005.69 1005.13 1004.86 1004.44 1004.61 1005.54 1006.12 1006.51 1006.74 1007.10 1006.97 1007.22 1007.15 1007.07 1007.08 1006.91 1006.79 1006.19 1005.68 1005.80 1006.69 1007.49 1007.84 1008.01 1008.11 1008.13 1008.62 1009.36 1010.06 1010.39 1010.73
1013.54 1012.97 1012.36 1011.67 1011.00 1010.64 1010.56 1009.54 1009.20 1009.25 1009.07 1006.97 1006.14 1005.67 1005.06 1005.05 1004.70 1004.26 1004.36 1004.94 1005.57 1006.31 1006.66 1007.05 1006.78 1006.53 1006.56 1006.50 1006.42 1006.17 1006.33 1006.06 1006.14 1006.46 1006.88 1007.45 1007.73 1007.68 1007.88 1007.97 1008.42 1008.84 1009.21 1009.83 1009.99
1013.23 1012.77 1012.28 1011.45 1011.16 1011.04 1009.94 1009.05 1008.98 1009.05 1008.56 1006.68 1005.49 1004.47 1004.59 1004.56 1004.50 1003.92 1004.08 1004.67 1005.59 1006.25 1006.90 1006.91 1006.32 1006.05 1006.02 1006.04 1006.07 1005.81 1005.58 1005.86 1006.50 1006.86 1007.42 1007.50 1008.15 1007.54 1007.60 1007.75 1007.92 1008.25 1008.74 1009.20 1009.65
1012.83 1012.41 1012.16 1012.07 1011.89 1010.86 1009.41 1008.92 1008.56 1008.69 1007.65 1005.42 1004.59 1003.77 1004.19 1004.43 1004.13 1004.04 1004.03 1004.39 1005.48 1006.35 1007.15 1006.65 1006.11 1005.74 1005.59 1005.33 1005.49 1005.48 1005.43 1006.16 1007.30 1007.63 1008.00 1008.31 1008.66 1007.54 1007.51 1007.75 1007.20 1007.30 1007.77 1008.45 1008.87
1012.44 1012.11 1011.91 1011.90 1011.73 1009.72 1008.94 1008.58 1008.32 1008.34 1006.41 1004.71 1004.07 1004.00 1004.27 1004.22 1004.15 1004.24 1004.20 1004.42 1005.42 1006.33 1006.85 1006.57 1005.91 1005.54 1004.89 1004.64 1004.78 1004.96 1005.90 1006.96 1008.16 1008.71 1009.20 1008.76 1008.81 1007.28 1007.19 1006.05 1006.28 1006.48 1006.69 1007.15 1007.78
1011.83 1011.65 1011.75 1011.40 1010.53 1009.49 1008.99 1008.55 1008.69 1007.28 1005.80 1005.06 1004.52 1004.21 1004.29 1004.46 1004.58 1004.58 1004.92 1005.32 1006.14 1006.97 1007.35 1006.54 1005.69 1004.97 1004.55 1004.63 1004.72 1005.37 1006.86 1008.24 1009.33 1010.00 1009.79 1008.93 1008.47 1006.22 1005.15 1004.69 1004.35 1004.54 1005.18 1005.92 1006.75
1011.05 1010.76 1010.87 1010.42 1009.94 1009.73 1009.10 1009.09 1008.33 1007.00 1005.86 1005.07 1004.79 1004.63 1004.91 1004.93 1005.06 1005.24 1005.80 1006.38 1006.56 1007.04 1007.82 1007.23 1005.98 1004.96 1004.34 1004.48 1004.69 1005.63 1006.87 1008.44 1009.78 1010.96 1010.10 1008.91 1007.59 1004.79 1003.86 1003.38 1003.14 1003.39 1004.25 1005.18 1006.06
1010.58 1010.67 1010.71 1009.73 1009.70 1010.22 1009.61 1009.37 1008.32 1006.96 1005.85 1005.42 1005.29 1005.56 1005.60 1005.62 1005.72 1005.91 1006.37 1006.86 1006.65 1006.75 1007.34 1007.27 1006.11 1004.92 1004.45 1004.20 1004.75 1006.09 1007.13 1008.03 1009.73 1011.06 1010.57 1008.97 1006.95 1004.40 1003.47 1003.31 1002.95 1003.45 1004.19 1004.60 1005.30
1010.57 1010.38 1010.24 1009.62 1009.68 1009.59 1009.47 1009.38 1008.23 1006.98 1006.05 1005.66 1006.14 1006.44 1006.78 1006.79 1006.67 1006.66 1007.15 1006.99 1006.90 1006.72 1006.52 1006.96 1006.66 1005.57 1004.84 1004.58 1005.16 1005.73 1006.98 1008.44 1009.79 1010.97 1010.84 1009.24 1007.53 1005.71 1003.89 1003.57 1003.71 1003.70 1004.00 1004.35 1004.81
1010.41 1010.57 1010.12 1009.56 1009.71 1009.71 1010.61 1009.96 1008.52 1006.86 1006.35 1006.31 1006.68 1007.06 1007.45 1007.58 1007.69 1007.81 1007.85 1007.06 1006.73 1006.67 1006.67 1007.20 1007.26 1006.49 1005.72 1006.14 1006.58 1006.78 1007.56 1009.20 1010.50 1011.04 1011.12 1010.04 1007.97 1004.98 1004.27 1003.85 1003.87 1004.02 1003.92 1004.03 1004.55
1010.72 1011.32 1009.94 1009.63 1010.01 1011.31 1011.09 1010.24 1008.88 1007.84 1007.06 1007.08 1007.21 1007.64 1008.05 1008.36 1008.65 1008.56 1008.31 1007.62 1006.98 1006.97 1007.08 1007.26 1008.07 1008.18 1007.75 1007.18 1007.07 1007.14 1008.37 1009.47 1011.04 1011.81 1011.67 1010.53 1007.48 1005.21 1004.81 1004.61 1004.47 1004.32 1004.14 1004.19 1004.08
1011.82 1011.74 1010.01 1010.01 1011.56 1012.12 1011.24 1010.32 1009.42 1008.59 1008.35 1008.16 1008.53 1008.66 1008.73 1009.43 1009.64 1009.27 1008.59 1007.57 1007.47 1007.39 1007.58 1007.48 1008.56 1009.07 1008.53 1008.14 1007.59 1008.10 1008.84 1009.63 1010.79 1011.41 1011.82 1011.17 1008.03 1006.03 1006.31 1006.50 1005.81 1005.39 1004.59 1004.19 1004.31
1012.46 1012.79 1011.87 1011.75 1012.55 1012.62 1012.25 1011.49 1010.32 1009.35 1009.25 1009.05 1009.38 1009.14 1009.41 1009.98 1009.98 1009.88 1008.99 1008.11 1007.91 1007.83 1007.56 1007.63 1009.17 1009.12 1008.90 1008.57 1008.65 1008.84 1009.37 1009.97 1010.40 1011.62 1012.02 1011.09 1009.49 1007.73 1007.79 1007.53 1006.66 1005.79 1005.27 1004.80 1004.36
1013.48 1014.90 1014.59 1013.95 1013.51 1013.37 1012.69 1012.29 1011.26 1010.53 1009.97 1009.77 1009.85 1010.03 1010.24 1010.65 1010.65 1010.39 1009.89 1009.22 1008.47 1008.58 1008.27 1008.79 1009.71 1009.61 1009.26 1008.81 1008.75 1009.09 1009.52 1010.07 1010.61 1011.11 1011.60 1011.04 1010.74 1009.98 1009.67 1008.96 1008.10 1007.11 1005.88 1005.55 1005.39
1015.11 1015.58 1015.11 1014.90 1014.32 1013.69 1013.40 1013.06 1012.27 1011.46 1010.97 1010.84 1010.76 1010.57 1010.44 1010.76 1011.04 1010.90 1010.48 1010.13 1009.76 1009.51 1009.73 1010.17 1010.61 1010.64 1010.47 1009.77 1009.31 1009.33 1009.56 1010.08 1010.83 1011.18 1011.14 1010.88 1010.82 1010.94 1009.99 1009.32 1008.48 1008.03 1007.62 1007.44 1006.13
1016.09 1015.91 1015.68 1015.60 1014.96 1014.41 1014.16 1013.36 1012.80 1012.20 1011.56 1011.17 1011.04 1010.83 1010.72 1010.81 1010.93 1010.53 1010.38 1010.25 1010.18 1010.52 1010.85 1011.11 1011.34 1011.68 1011.45 1010.74 1010.32 1010.27 1009.81 1010.07 1010.73 1011.33 1011.57 1011.16 1011.23 1011.07 1010.47 1009.70 1009.54 1008.47 1008.27 1007.98 1007.55
Thickness
5784 5786 5789 5792 5794 5797 5800 5802 5805 5811 5813 5817 5820 5821 5825 5831 5831 5829 5828 5846 5845 5843 5841 5835 5829 5820 5813 5802 5803 5799 5766 5758 5768 5770 5773 5792 5783 5793 5797 5781 5786 5787 5775 5771 5768
5782 5786 5788 5791 5794 5798 5800 5803 5807 5811 5814 5816 5824 5822 5824 5829 5831 5832 5858 5856 5851 5846 5835 5826 5817 5814 5799 5795 5793 5783 5767 5773 5786 5786 5783 5794 5789 5786 5781 5776 5773 5773 5776 5772 5769
5780 5783 5787 5790 5794 5798 5802 5804 5808 5812 5815 5819 5823 5822 5825 5827 5830 5847 5866 5858 5851 5848 5840 5832 5827 5816 5801 5798 5794 5792 5775 5791 5796 5799 5802 5798 5791 5798 5779 5765 5775 5771 5770 5769 5767
5779 5783 5787 5790 5793 5798 5802 5806 5810 5813 5817 5819 5822 5825 5826 5826 5809 5858 5863 5857 5852 5849 5838 5827 5820 5808 5798 5795 5803 5793 5802 5804 5817 5806 5803 5792 5796 5789 5788 5786 5790 5787 5782 5775 5767
5777 5781 5785 5790 5793 5798 5802 5806 5810 5814 5817 5820 5823 5824 5826 5827 5835 5862 5861 5855 5851 5844 5831 5821 5815 5811 5804 5804 5805 5797 5805 5810 5811 5804 5802 5801 5793 5788 5790 5801 5794 5786 5780 5776 5774
5775 5779 5784 5789 5793 5798 5803 5807 5811 5815 5818 5820 5822 5823 5825 5818 5861 5860 5859 5852 5848 5840 5831 5827 5821 5822 5816 5808 5804 5811 5811 5812 5809 5805 5803 5794 5793 5794 5799 5804 5790 5786 5781 5779 5779
5772 5778 5782 5787 5793 5798 5803 5807 5811 5816 5819 5819 5821 5822 5823 5832 5860 5858 5854 5849 5849 5844 5828 5831 5831 5821 5819 5809 5819 5815 5798 5804 5807 5803 5800 5803 5787 5791 5803 5801 5789 5785 5784 5782 5782
5770 5774 5780 5785 5790 5796 5802 5807 5813 5819 5822 5820 5819 5820 5816 5853 5855 5851 5850 5843 5845 5843 5836 5836 5833 5821 5818 5829 5818 5804 5796 5774 5807 5808 5809 5800 5768 5798 5807 5797 5790 5788 5786 5785 5782
5767 5771 5777 5782 5786 5794 5800 5807 5815 5819 5822 5819 5816 5816 5816 5847 5839 5849 5849 5839 5838 5836 5833 5837 5829 5814 5819 5800 5784 5789 5773 5780 5797 5813 5803 5793 5782 5800 5803 5799 5791 5790 5789 5788 5786
5762 5767 5773 5778 5783 5790 5799 5809 5812 5815 5815 5815 5818 5808 5827 5829 5846 5847 5847 5844 5833 5827 5818 5814 5811 5796 5788 5783 5760 5777 5782 5796 5791 5802 5802 5793 5795 5802 5803 5799 5795 5792 5790 5790 5789
5757 5762 5767 5773 5778 5785 5793 5803 5799 5800 5807 5809 5813 5816 5824 5841 5852 5844 5846 5834 5831 5825 5799 5811 5792 5779 5793 5799 5803 5799 5792 5790 5813 5821 5808 5797 5796 5802 5804 5801 5795 5792 5789 5791 5795
5752 5756 5761 5767 5773 5780 5782 5791 5791 5793 5783 5813 5813 5816 5827 5837 5822 5837 5848 5821 5813 5798 5810 5796 5785 5801 5809 5806 5802 5798 5793 5796 5818 5825 5813 5798 5797 5805 5809 5811 5809 5802 5796 5797 5799
5747 5751 5756 5762 5769 5775 5777 5788 5793 5794 5777 5799 5813 5816 5823 5828 5820 5825 5838 5826 5811 5800 5801 5785 5801 5813 5811 5809 5805 5801 5797 5806 5808 5815 5817 5804 5797 5804 5811 5814 5812 5810 5808 5804 5804
5745 5747 5751 5757 5764 5763 5775 5787 5789 5790 5754 5787 5803 5819 5824 5825 5815 5840 5841 5828 5811 5795 5795 5794 5810 5814 5811 5805 5805 5796 5822 5816 5806 5800 5784 5811 5767 5801 5806 5807 5810 5810 5807 5805 5807
5745 5746 5746 5746 5746 5760 5776 5781 5788 5785 5730 5798 5803 5835 5824 5813 5822 5825 5841 5827 5799 5798 5793 5789 5806 5809 5805 5813 5818 5807 5827 5818 5803 5793 5791 5790 5773 5793 5802 5794 5807 5814 5816 5813 5812
5746 5745 5745 5744 5744 5764 5773 5780 5782 5744 5740 5785 5802 5801 5802 5811 5814 5819 5823 5829 5819 5801 5797 5795 5817 5817 5815 5828 5826 5834 5820 5797 5784 5776 5757 5780 5776 5787 5793 5814 5817 5821 5823 5825 5822
5750 5748 5745 5745 5757 5763 5771 5773 5736 5729 5781 5774 5784 5798 5797 5796 5801 5805 5799 5796 5781 5767 5771 5789 5802 5819 5828 5818 5824 5814 5787 5751 5761 5747 5757 5773 5778 5799 5829 5835 5842 5839 5835 5835 5833
5757 5756 5752 5754 5758 5761 5769 5748 5728 5762 5768 5788 5786 5792 5786 5794 5794 5793 5782 5773 5790 5778 5754 5762 5768 5808 5826 5818 5815 5812 5793 5752 5756 5742 5756 5780 5776 5816 5850 5853 5854 5858 5851 5845 5838
5762 5759 5756 5762 5763 5760 5758 5726 5742 5762 5779 5777 5782 5769 5773 5784 5787 5786 5780 5771 5781 5783 5768 5757 5774 5814 5822 5828 5824 5802 5786 5796 5753 5746 5752 5769 5798 5837 5853 5851 5855 5850 5849 5846 5845
5765 5766 5764 5766 5767 5766 5748 5734 5753 5771 5782 5782 5763 5771 5762 5765 5772 5774 5763 5787 5781 5788 5798 5782 5770 5803 5816 5827 5822 5815 5805 5778 5757 5759 5761 5767 5778 5795 5841 5849 5846 5846 5847 5849 5849
5770 5760 5768 5771 5769 5759 5733 5738 5755 5780 5784 5776 5768 5765 5766 5764 5763 5756 5763 5785 5792 5790 5793 5782 5777 5784 5805 5794 5788 5793 5786 5766 5761 5749 5740 5744 5769 5822 5839 5850 5851 5849 5851 5853 5852
5765 5745 5770 5772 5752 5728 5735 5746 5761 5770 5778 5774 5774 5770 5765 5759 5755 5760 5762 5775 5796 5793 5788 5791 5764 5757 5780 5794 5798 5797 5784 5770 5752 5760 5736 5739 5768 5838 5838 5848 5850 5854 5855 5856 5860
5751 5748 5770 5768 5727 5727 5740 5753 5761 5762 5759 5765 5757 5759 5761 5750 5749 5755 5763 5789 5791 5786 5784 5792 5756 5740 5754 5772 5790 5781 5783 5770 5753 5746 5740 5740 5769 5830 5824 5822 5834 5838 5853 5859 5858
5750 5739 5748 5747 5734 5735 5732 5735 5743 5763 5756 5759 5753 5758 5753 5741 5745 5748 5754 5779 5784 5784 5788 5786 5751 5755 5739 5757 5769 5773 5772 5772 5764 5745 5743 5745 5767 5802 5804 5809 5826 5835 5844 5851 5857
5739 5724 5727 5722 5731 5727 5732 5730 5733 5734 5749 5749 5747 5745 5744 5733 5735 5740 5752 5757 5775 5775 5778 5770 5750 5762 5763 5772 5771 5768 5764 5764 5761 5757 5752 5766 5760 5781 5786 5795 5809 5823 5839 5841 5843
5727 5723 5722 5719 5720 5730 5722 5723 5727 5733 5738 5734 5736 5741 5744 5736 5739 5734 5744 5748 5750 5761 5763 5753 5741 5748 5748 5757 5762 5757 5762 5756 5753 5752 5754 5759 5764 5774 5789 5798 5806 5811 5817 5821 5834
5720 5721 5720 5713 5717 5720 5716 5725 5727 5730 5742 5743 5739 5737 5738 5742 5743 5746 5748 5752 5754 5751 5743 5743 5731 5726 5725 5736 5741 5733 5752 5749 5745 5744 5745 5753 5761 5767 5776 5788 5791 5806 5809 5812 5819